QPF
0.03 0.04 0.03 0.02 0.01 0.01 0.00 0.00 0.00 0.00 0.00 0.00 0.00 0.00 0.00 0.00 0.00 0.00 0.00 0.00 0.00 0.00 0.00 0.00 0.00 0.00 0.00 0.00 0.00 0.00 0.01 0.00 0.00 0.00 0.00 0.00 0.01 0.00 0.01 0.01 0.01 0.01 0.02
0.03 0.03 0.02 0.01 0.01 0.00 0.00 0.00 0.00 0.00 0.00 0.00 0.00 0.00 0.00 0.00 0.00 0.00 0.00 0.00 0.00 0.00 0.00 0.00 0.00 0.00 0.00 0.00 0.00 0.00 0.00 0.00 0.00 0.00 0.00 0.00 0.00 0.00 0.00 0.00 0.01 0.01 0.01
0.04 0.03 0.02 0.01 0.00 0.00 0.00 0.00 0.00 0.00 0.00 0.00 0.00 0.00 0.00 0.00 0.00 0.00 0.00 0.00 0.00 0.00 0.00 0.00 0.00 0.00 0.00 0.00 0.00 0.00 0.00 0.00 0.00 0.00 0.00 0.00 0.00 0.00 0.00 0.00 0.00 0.00 0.00
0.02 0.03 0.01 0.01 0.01 0.00 0.00 0.00 0.00 0.00 0.00 0.00 0.00 0.00 0.00 0.00 0.00 0.00 0.00 0.00 0.00 0.00 0.00 0.00 0.00 0.00 0.00 0.00 0.00 0.00 0.00 0.00 0.00 0.00 0.00 0.00 0.00 0.00 0.00 0.00 0.00 0.01 0.01
0.01 0.02 0.01 0.01 0.01 0.01 0.00 0.00 0.00 0.00 0.00 0.01 0.01 0.00 0.00 0.00 0.00 0.00 0.00 0.00 0.00 0.00 0.00 0.00 0.00 0.00 0.00 0.00 0.00 0.00 0.00 0.00 0.00 0.00 0.00 0.00 0.00 0.00 0.00 0.00 0.00 0.01 0.01
0.00 0.01 0.02 0.02 0.01 0.01 0.00 0.00 0.00 0.00 0.00 0.01 0.01 0.00 0.00 0.00 0.00 0.00 0.00 0.00 0.00 0.00 0.00 0.00 0.00 0.00 0.00 0.01 0.01 0.01 0.01 0.00 0.00 0.00 0.00 0.00 0.00 0.00 0.00 0.00 0.00 0.00 0.00
0.00 0.00 0.01 0.02 0.01 0.01 0.00 0.00 0.00 0.00 0.00 0.01 0.01 0.00 0.00 0.00 0.00 0.00 0.00 0.00 0.00 0.00 0.00 0.00 0.00 0.00 0.00 0.00 0.00 0.01 0.01 0.01 0.01 0.01 0.00 0.00 0.00 0.00 0.00 0.00 0.00 0.00 0.00
0.00 0.00 0.00 0.01 0.01 0.01 0.01 0.00 0.00 0.00 0.00 0.01 0.00 0.00 0.00 0.00 0.00 0.00 0.00 0.00 0.00 0.00 0.00 0.00 0.00 0.00 0.00 0.00 0.00 0.00 0.00 0.00 0.00 0.01 0.01 0.01 0.01 0.00 0.00 0.00 0.00 0.00 0.00
0.01 0.00 0.00 0.00 0.00 0.00 0.00 0.00 0.00 0.00 0.01 0.01 0.00 0.00 0.00 0.00 0.00 0.00 0.00 0.00 0.00 0.00 0.00 0.00 0.00 0.00 0.00 0.00 0.00 0.00 0.00 0.00 0.00 0.00 0.00 0.01 0.01 0.01 0.01 0.00 0.00 0.00 0.00
0.00 0.00 0.00 0.00 0.00 0.00 0.00 0.00 0.00 0.00 0.01 0.00 0.00 0.00 0.00 0.00 0.00 0.00 0.00 0.00 0.00 0.00 0.00 0.00 0.00 0.00 0.00 0.00 0.00 0.00 0.00 0.00 0.00 0.00 0.00 0.00 0.00 0.01 0.01 0.01 0.01 0.01 0.01
0.01 0.00 0.00 0.00 0.00 0.00 0.00 0.00 0.00 0.01 0.01 0.00 0.00 0.00 0.00 0.00 0.00 0.00 0.00 0.00 0.00 0.00 0.00 0.00 0.00 0.00 0.00 0.00 0.00 0.00 0.00 0.00 0.00 0.00 0.00 0.00 0.00 0.00 0.00 0.01 0.01 0.00 0.00
0.00 0.00 0.00 0.00 0.00 0.00 0.00 0.00 0.01 0.01 0.00 0.00 0.00 0.00 0.00 0.00 0.00 0.00 0.00 0.00 0.00 0.00 0.00 0.00 0.00 0.00 0.00 0.00 0.00 0.00 0.00 0.00 0.00 0.00 0.00 0.00 0.00 0.00 0.00 0.00 0.00 0.00 0.00
0.00 0.00 0.00 0.00 0.00 0.01 0.01 0.00 0.00 0.00 0.00 0.00 0.00 0.00 0.00 0.00 0.00 0.00 0.00 0.00 0.00 0.00 0.00 0.00 0.00 0.00 0.00 0.00 0.00 0.00 0.00 0.00 0.00 0.00 0.00 0.00 0.01 0.00 0.00 0.00 0.00 0.00 0.00
0.00 0.00 0.00 0.00 0.00 0.00 0.00 0.00 0.00 0.00 0.00 0.00 0.00 0.00 0.00 0.00 0.00 0.00 0.00 0.00 0.00 0.00 0.00 0.00 0.00 0.00 0.00 0.00 0.00 0.00 0.00 0.00 0.00 0.00 0.00 0.00 0.01 0.01 0.01 0.01 0.01 0.01 0.00
0.01 0.00 0.00 0.01 0.01 0.00 0.00 0.00 0.00 0.00 0.00 0.00 0.00 0.00 0.00 0.00 0.00 0.00 0.00 0.00 0.00 0.00 0.00 0.00 0.00 0.00 0.00 0.00 0.00 0.00 0.00 0.00 0.00 0.00 0.00 0.00 0.00 0.00 0.01 0.01 0.01 0.02 0.01
0.00 0.00 0.00 0.00 0.00 0.01 0.00 0.00 0.00 0.00 0.01 0.01 0.00 0.00 0.00 0.00 0.00 0.00 0.00 0.00 0.00 0.00 0.00 0.00 0.00 0.00 0.00 0.00 0.00 0.00 0.00 0.00 0.00 0.00 0.00 0.00 0.00 0.00 0.00 0.00 0.01 0.01 0.01
0.01 0.00 0.00 0.00 0.00 0.00 0.00 0.00 0.00 0.00 0.00 0.00 0.00 0.00 0.01 0.01 0.00 0.00 0.00 0.00 0.00 0.00 0.00 0.00 0.00 0.00 0.00 0.00 0.00 0.00 0.00 0.00 0.00 0.00 0.00 0.00 0.00 0.00 0.00 0.00 0.01 0.01 0.01
0.02 0.01 0.00 0.00 0.00 0.00 0.00 0.01 0.01 0.00 0.00 0.00 0.00 0.00 0.00 0.01 0.00 0.00 0.00 0.00 0.00 0.00 0.00 0.00 0.00 0.00 0.00 0.00 0.00 0.00 0.00 0.00 0.00 0.00 0.00 0.00 0.00 0.01 0.01 0.01 0.01 0.01 0.01
0.01 0.01 0.01 0.01 0.01 0.01 0.01 0.01 0.01 0.01 0.00 0.00 0.00 0.00 0.00 0.00 0.00 0.00 0.00 0.00 0.00 0.00 0.00 0.00 0.00 0.00 0.00 0.00 0.00 0.00 0.00 0.00 0.00 0.00 0.00 0.00 0.01 0.01 0.01 0.01 0.01 0.01 0.01
0.01 0.01 0.01 0.01 0.01 0.01 0.01 0.01 0.01 0.01 0.01 0.00 0.00 0.00 0.00 0.00 0.00 0.00 0.00 0.00 0.00 0.00 0.00 0.00 0.00 0.00 0.00 0.00 0.00 0.01 0.01 0.01 0.01 0.01 0.01 0.01 0.01 0.01 0.01 0.01 0.01 0.01 0.01
0.01 0.01 0.01 0.01 0.01 0.00 0.00 0.01 0.01 0.01 0.01 0.01 0.00 0.00 0.01 0.00 0.00 0.00 0.00 0.00 0.00 0.00 0.00 0.00 0.00 0.01 0.01 0.01 0.01 0.01 0.01 0.01 0.01 0.01 0.01 0.01 0.01 0.01 0.01 0.01 0.01 0.02 0.02
0.01 0.01 0.01 0.00 0.01 0.01 0.01 0.01 0.01 0.01 0.01 0.01 0.01 0.01 0.01 0.01 0.01 0.01 0.00 0.00 0.00 0.00 0.00 0.00 0.00 0.00 0.00 0.00 0.01 0.01 0.01 0.01 0.01 0.01 0.01 0.01 0.01 0.01 0.01 0.01 0.02 0.02 0.02
0.00 0.00 0.00 0.00 0.00 0.01 0.01 0.01 0.01 0.01 0.01 0.01 0.01 0.01 0.01 0.01 0.01 0.01 0.01 0.01 0.01 0.00 0.00 0.00 0.00 0.00 0.00 0.01 0.01 0.01 0.01 0.01 0.01 0.02 0.02 0.02 0.02 0.01 0.02 0.02 0.02 0.02 0.02
0.00 0.00 0.00 0.00 0.00 0.01 0.01 0.01 0.01 0.02 0.02 0.01 0.01 0.01 0.01 0.01 0.01 0.01 0.01 0.02 0.02 0.01 0.01 0.00 0.00 0.00 0.00 0.01 0.01 0.01 0.01 0.01 0.01 0.01 0.02 0.02 0.02 0.02 0.02 0.02 0.02 0.02 0.02
0.00 0.00 0.00 0.00 0.00 0.01 0.02 0.02 0.02 0.01 0.01 0.01 0.00 0.00 0.00 0.00 0.01 0.01 0.01 0.01 0.02 0.03 0.03 0.02 0.01 0.01 0.01 0.01 0.00 0.00 0.00 0.00 0.01 0.01 0.01 0.02 0.02 0.02 0.02 0.02 0.02 0.02 0.02
0.00 0.00 0.00 0.00 0.01 0.01 0.02 0.02 0.02 0.01 0.01 0.00 0.00 0.00 0.00 0.00 0.00 0.00 0.01 0.01 0.01 0.01 0.02 0.02 0.02 0.01 0.01 0.01 0.00 0.01 0.01 0.01 0.01 0.01 0.01 0.02 0.02 0.02 0.02 0.02 0.02 0.03 0.03
MSLP
1021.85 1022.08 1022.33 1022.56 1022.74 1022.84 1022.86 1022.81 1022.72 1022.63 1022.58 1022.57 1022.61 1022.69 1022.79 1022.86 1022.87 1022.80 1022.64 1022.40 1022.10 1021.77 1021.46 1021.19 1020.97 1020.82 1020.70 1020.61 1020.50 1020.35 1020.15 1019.89 1019.59 1019.26 1018.93 1018.59 1018.24 1017.86 1017.37 1016.73 1015.87 1014.74 1013.32
1022.07 1022.32 1022.61 1022.87 1023.08 1023.22 1023.27 1023.25 1023.20 1023.14 1023.10 1023.10 1023.16 1023.25 1023.37 1023.46 1023.51 1023.49 1023.37 1023.18 1022.92 1022.62 1022.33 1022.05 1021.83 1021.65 1021.52 1021.41 1021.30 1021.16 1020.97 1020.74 1020.46 1020.15 1019.81 1019.46 1019.08 1018.64 1018.11 1017.44 1016.58 1015.48 1014.15
1022.32 1022.62 1022.94 1023.24 1023.48 1023.65 1023.74 1023.76 1023.73 1023.69 1023.66 1023.67 1023.73 1023.83 1023.96 1024.07 1024.15 1024.16 1024.09 1023.94 1023.73 1023.47 1023.19 1022.93 1022.71 1022.53 1022.38 1022.27 1022.16 1022.03 1021.86 1021.65 1021.39 1021.09 1020.75 1020.38 1019.97 1019.51 1018.97 1018.31 1017.50 1016.51 1015.34
1022.59 1022.94 1023.30 1023.64 1023.92 1024.13 1024.24 1024.29 1024.29 1024.26 1024.24 1024.26 1024.32 1024.42 1024.55 1024.67 1024.77 1024.81 1024.78 1024.67 1024.49 1024.27 1024.02 1023.78 1023.56 1023.38 1023.23 1023.11 1023.00 1022.87 1022.72 1022.52 1022.27 1021.97 1021.63 1021.25 1020.83 1020.36 1019.82 1019.21 1018.49 1017.64 1016.68
1022.85 1023.26 1023.67 1024.05 1024.36 1024.60 1024.74 1024.82 1024.83 1024.82 1024.82 1024.84 1024.90 1024.99 1025.11 1025.24 1025.34 1025.40 1025.39 1025.32 1025.18 1024.99 1024.77 1024.55 1024.34 1024.16 1024.00 1023.87 1023.75 1023.62 1023.46 1023.26 1023.01 1022.71 1022.36 1021.97 1021.54 1021.08 1020.57 1020.02 1019.40 1018.71 1017.96
1023.03 1023.51 1023.98 1024.40 1024.75 1025.01 1025.19 1025.29 1025.33 1025.34 1025.34 1025.37 1025.42 1025.51 1025.62 1025.74 1025.84 1025.91 1025.92 1025.87 1025.75 1025.59 1025.40 1025.19 1024.99 1024.80 1024.63 1024.49 1024.34 1024.20 1024.02 1023.81 1023.56 1023.25 1022.89 1022.50 1022.07 1021.62 1021.15 1020.66 1020.15 1019.61 1019.03
1023.12 1023.66 1024.18 1024.64 1025.02 1025.32 1025.52 1025.66 1025.73 1025.76 1025.78 1025.82 1025.87 1025.95 1026.05 1026.15 1026.25 1026.31 1026.33 1026.29 1026.19 1026.05 1025.87 1025.67 1025.47 1025.28 1025.10 1024.93 1024.76 1024.59 1024.39 1024.17 1023.90 1023.58 1023.23 1022.84 1022.42 1021.99 1021.56 1021.13 1020.70 1020.27 1019.84
1023.04 1023.65 1024.22 1024.72 1025.14 1025.47 1025.72 1025.89 1026.00 1026.06 1026.11 1026.16 1026.22 1026.29 1026.37 1026.46 1026.53 1026.58 1026.60 1026.56 1026.48 1026.35 1026.19 1026.00 1025.80 1025.60 1025.40 1025.21 1025.01 1024.82 1024.60 1024.36 1024.08 1023.76 1023.42 1023.04 1022.64 1022.24 1021.84 1021.45 1021.08 1020.73 1020.40
1022.80 1023.46 1024.07 1024.61 1025.08 1025.45 1025.75 1025.97 1026.12 1026.23 1026.32 1026.38 1026.44 1026.51 1026.58 1026.64 1026.70 1026.73 1026.74 1026.70 1026.63 1026.52 1026.37 1026.19 1026.00 1025.79 1025.58 1025.37 1025.16 1024.94 1024.70 1024.45 1024.17 1023.86 1023.53 1023.17 1022.80 1022.43 1022.06 1021.71 1021.38 1021.07 1020.78
1022.39 1023.09 1023.74 1024.33 1024.84 1025.27 1025.62 1025.90 1026.12 1026.28 1026.40 1026.49 1026.56 1026.62 1026.67 1026.71 1026.75 1026.77 1026.77 1026.74 1026.68 1026.58 1026.46 1026.30 1026.13 1025.93 1025.72 1025.50 1025.27 1025.03 1024.79 1024.52 1024.25 1023.95 1023.63 1023.30 1022.96 1022.62 1022.28 1021.95 1021.64 1021.35 1021.07
1021.86 1022.59 1023.28 1023.90 1024.47 1024.96 1025.38 1025.72 1026.00 1026.21 1026.37 1026.49 1026.57 1026.63 1026.66 1026.69 1026.71 1026.72 1026.72 1026.70 1026.66 1026.60 1026.51 1026.39 1026.24 1026.06 1025.86 1025.64 1025.41 1025.16 1024.90 1024.63 1024.35 1024.06 1023.76 1023.45 1023.14 1022.82 1022.50 1022.18 1021.88 1021.58 1021.30
1021.26 1022.01 1022.73 1023.40 1024.02 1024.57 1025.06 1025.47 1025.81 1026.07 1026.27 1026.42 1026.51 1026.56 1026.59 1026.60 1026.61 1026.62 1026.63 1026.64 1026.63 1026.62 1026.57 1026.49 1026.38 1026.23 1026.05 1025.84 1025.60 1025.34 1025.06 1024.78 1024.50 1024.21 1023.91 1023.61 1023.31 1023.00 1022.69 1022.38 1022.07 1021.77 1021.47
1020.69 1021.44 1022.18 1022.89 1023.56 1024.17 1024.72 1025.19 1025.59 1025.90 1026.14 1026.30 1026.39 1026.44 1026.47 1026.48 1026.49 1026.51 1026.54 1026.58 1026.62 1026.65 1026.66 1026.63 1026.57 1026.45 1026.29 1026.08 1025.83 1025.56 1025.27 1024.97 1024.66 1024.35 1024.04 1023.73 1023.42 1023.11 1022.79 1022.47 1022.15 1021.83 1021.52
1020.21 1020.96 1021.71 1022.45 1023.16 1023.82 1024.43 1024.95 1025.39 1025.74 1025.99 1026.16 1026.26 1026.31 1026.34 1026.35 1026.37 1026.40 1026.46 1026.55 1026.64 1026.72 1026.79 1026.81 1026.79 1026.70 1026.56 1026.35 1026.09 1025.79 1025.47 1025.13 1024.79 1024.45 1024.10 1023.77 1023.43 1023.10 1022.76 1022.42 1022.08 1021.74 1021.41
1019.90 1020.63 1021.39 1022.15 1022.89 1023.59 1024.23 1024.78 1025.25 1025.61 1025.88 1026.05 1026.15 1026.20 1026.22 1026.24 1026.28 1026.34 1026.44 1026.56 1026.70 1026.84 1026.95 1027.01 1027.02 1026.95 1026.81 1026.60 1026.32 1025.99 1025.62 1025.24 1024.85 1024.46 1024.07 1023.68 1023.30 1022.93 1022.56 1022.18 1021.82 1021.46 1021.11
1019.81 1020.52 1021.27 1022.04 1022.79 1023.50 1024.16 1024.73 1025.20 1025.56 1025.83 1026.00 1026.10 1026.14 1026.17 1026.20 1026.26 1026.35 1026.47 1026.63 1026.81 1026.98 1027.12 1027.20 1027.22 1027.15 1027.01 1026.77 1026.46 1026.10 1025.69 1025.26 1024.82 1024.37 1023.93 1023.49 1023.06 1022.63 1022.22 1021.80 1021.40 1021.01 1020.65
1019.95 1020.64 1021.37 1022.13 1022.87 1023.58 1024.23 1024.79 1025.25 1025.61 1025.86 1026.02 1026.11 1026.16 1026.20 1026.25 1026.32 1026.43 1026.58 1026.76 1026.95 1027.13 1027.27 1027.36 1027.36 1027.28 1027.11 1026.84 1026.50 1026.10 1025.66 1025.19 1024.70 1024.21 1023.72 1023.23 1022.75 1022.28 1021.81 1021.35 1020.91 1020.48 1020.08
1020.33 1020.98 1021.68 1022.41 1023.13 1023.82 1024.44 1024.98 1025.42 1025.75 1025.98 1026.14 1026.23 1026.28 1026.33 1026.39 1026.48 1026.61 1026.77 1026.95 1027.13 1027.30 1027.41 1027.46 1027.44 1027.32 1027.11 1026.81 1026.44 1026.01 1025.54 1025.05 1024.54 1024.02 1023.50 1022.98 1022.45 1021.93 1021.42 1020.91 1020.41 1019.94 1019.49
1020.89 1021.50 1022.17 1022.86 1023.54 1024.19 1024.78 1025.28 1025.68 1025.99 1026.21 1026.36 1026.45 1026.51 1026.57 1026.65 1026.75 1026.88 1027.03 1027.19 1027.34 1027.46 1027.52 1027.52 1027.43 1027.26 1027.01 1026.67 1026.28 1025.84 1025.36 1024.87 1024.35 1023.83 1023.30 1022.76 1022.21 1021.66 1021.09 1020.53 1019.98 1019.44 1018.94
1021.59 1022.16 1022.78 1023.42 1024.06 1024.66 1025.20 1025.66 1026.03 1026.32 1026.52 1026.66 1026.76 1026.84 1026.91 1027.00 1027.10 1027.22 1027.35 1027.47 1027.57 1027.62 1027.61 1027.52 1027.37 1027.13 1026.83 1026.46 1026.05 1025.61 1025.14 1024.67 1024.18 1023.67 1023.15 1022.61 1022.05 1021.46 1020.85 1020.24 1019.62 1019.02 1018.44
1022.36 1022.89 1023.47 1024.06 1024.65 1025.20 1025.69 1026.10 1026.44 1026.70 1026.89 1027.03 1027.14 1027.23 1027.32 1027.41 1027.51 1027.61 1027.70 1027.76 1027.78 1027.75 1027.65 1027.48 1027.24 1026.94 1026.58 1026.19 1025.77 1025.34 1024.90 1024.45 1023.99 1023.52 1023.02 1022.49 1021.92 1021.30 1020.65 1019.98 1019.29 1018.61 1017.95
1023.16 1023.65 1024.18 1024.72 1025.26 1025.75 1026.19 1026.56 1026.86 1027.10 1027.28 1027.43 1027.54 1027.64 1027.74 1027.83 1027.91 1027.98 1028.03 1028.03 1027.97 1027.85 1027.65 1027.39 1027.07 1026.70 1026.30 1025.88 1025.45 1025.03 1024.62 1024.20 1023.78 1023.34 1022.86 1022.34 1021.75 1021.11 1020.42 1019.68 1018.92 1018.15 1017.40
1023.93 1024.39 1024.87 1025.36 1025.84 1026.28 1026.67 1027.00 1027.27 1027.48 1027.66 1027.80 1027.91 1028.02 1028.12 1028.20 1028.27 1028.30 1028.29 1028.22 1028.08 1027.87 1027.59 1027.24 1026.85 1026.42 1025.97 1025.53 1025.10 1024.68 1024.29 1023.90 1023.50 1023.08 1022.61 1022.08 1021.47 1020.80 1020.05 1019.25 1018.41 1017.57 1016.74
1024.64 1025.07 1025.51 1025.95 1026.38 1026.76 1027.10 1027.38 1027.62 1027.81 1027.97 1028.10 1028.21 1028.31 1028.40 1028.47 1028.51 1028.50 1028.44 1028.31 1028.10 1027.81 1027.46 1027.04 1026.58 1026.10 1025.62 1025.15 1024.71 1024.30 1023.90 1023.52 1023.13 1022.70 1022.22 1021.67 1021.03 1020.30 1019.50 1018.64 1017.74 1016.82 1015.93
1025.27 1025.67 1026.08 1026.47 1026.85 1027.18 1027.47 1027.71 1027.90 1028.06 1028.19 1028.30 1028.40 1028.49 1028.56 1028.60 1028.61 1028.56 1028.46 1028.27 1028.00 1027.66 1027.24 1026.77 1026.27 1025.75 1025.24 1024.75 1024.29 1023.86 1023.46 1023.06 1022.65 1022.20 1021.68 1021.08 1020.40 1019.62 1018.77 1017.85 1016.90 1015.94 1015.00
1025.82 1026.19 1026.57 1026.92 1027.24 1027.52 1027.76 1027.95 1028.10 1028.23 1028.32 1028.41 1028.47 1028.53 1028.57 1028.58 1028.55 1028.47 1028.32 1028.09 1027.79 1027.40 1026.95 1026.45 1025.92 1025.38 1024.85 1024.34 1023.86 1023.40 1022.97 1022.53 1022.08 1021.58 1021.01 1020.36 1019.63 1018.80 1017.90 1016.95 1015.96 1014.98 1014.02
Thickness
5694 5693 5692 5690 5688 5687 5685 5684 5683 5683 5682 5681 5681 5680 5679 5678 5677 5675 5674 5673 5671 5670 5669 5667 5666 5665 5663 5662 5660 5659 5657 5654 5651 5651 5653 5655 5656 5657 5659 5661 5662 5664 5665
5692 5690 5688 5686 5685 5683 5681 5680 5680 5679 5678 5678 5677 5676 5675 5674 5672 5671 5670 5668 5666 5665 5663 5662 5661 5660 5658 5656 5655 5653 5651 5650 5648 5645 5646 5648 5649 5650 5652 5653 5655 5656 5657
5689 5686 5684 5682 5681 5679 5677 5676 5676 5675 5674 5673 5672 5671 5670 5669 5668 5666 5665 5663 5661 5660 5658 5657 5655 5654 5652 5651 5649 5647 5646 5645 5643 5640 5639 5640 5641 5643 5644 5645 5646 5647 5649
5685 5683 5680 5678 5677 5675 5673 5672 5671 5670 5670 5669 5668 5667 5666 5665 5663 5662 5660 5658 5656 5654 5653 5652 5650 5649 5647 5645 5644 5641 5640 5638 5636 5634 5632 5632 5632 5633 5633 5633 5635 5637 5638
5682 5679 5677 5675 5672 5670 5668 5667 5666 5666 5665 5664 5663 5662 5661 5660 5658 5656 5655 5653 5650 5648 5647 5646 5645 5644 5642 5641 5639 5636 5634 5630 5628 5626 5624 5623 5622 5622 5622 5622 5623 5625 5628
5679 5676 5674 5671 5668 5665 5663 5662 5661 5661 5660 5659 5658 5657 5656 5656 5654 5652 5650 5647 5645 5642 5640 5639 5638 5636 5635 5633 5632 5630 5628 5624 5620 5618 5615 5614 5613 5613 5613 5613 5612 5613 5615
5676 5673 5671 5668 5664 5661 5660 5658 5657 5656 5655 5653 5652 5652 5650 5650 5649 5647 5644 5641 5638 5635 5633 5632 5631 5629 5627 5625 5623 5622 5619 5617 5615 5612 5608 5607 5606 5605 5604 5604 5603 5602 5603
5673 5670 5668 5665 5662 5659 5657 5655 5653 5652 5650 5649 5647 5646 5645 5644 5643 5641 5638 5635 5631 5629 5626 5624 5622 5621 5620 5617 5615 5612 5610 5608 5606 5604 5602 5601 5599 5598 5596 5595 5594 5594 5594
5670 5667 5665 5663 5660 5657 5654 5651 5650 5648 5646 5644 5643 5641 5639 5638 5637 5635 5632 5628 5624 5621 5619 5617 5615 5613 5612 5609 5606 5603 5600 5599 5598 5596 5594 5592 5591 5589 5588 5586 5583 5582 5582
5669 5666 5664 5661 5658 5654 5652 5649 5647 5645 5642 5640 5637 5635 5633 5631 5630 5628 5626 5621 5617 5614 5611 5609 5607 5605 5603 5600 5596 5592 5590 5588 5587 5586 5584 5582 5580 5578 5576 5574 5571 5568 5568
5667 5664 5661 5658 5656 5652 5648 5645 5643 5640 5637 5634 5631 5629 5627 5625 5623 5621 5618 5614 5610 5606 5603 5600 5598 5596 5593 5590 5587 5583 5580 5579 5576 5573 5571 5569 5568 5566 5564 5562 5559 5556 5554
5663 5660 5656 5654 5652 5648 5644 5640 5637 5634 5630 5627 5624 5621 5619 5617 5615 5613 5611 5607 5603 5598 5594 5591 5588 5586 5583 5580 5577 5574 5571 5568 5564 5561 5558 5556 5554 5553 5551 5550 5548 5545 5543
5658 5655 5652 5649 5646 5643 5639 5635 5631 5628 5625 5621 5617 5614 5611 5609 5607 5605 5602 5598 5595 5590 5586 5583 5579 5576 5572 5569 5565 5562 5559 5555 5551 5548 5545 5543 5541 5540 5538 5537 5536 5534 5532
5654 5650 5646 5643 5639 5636 5634 5631 5627 5622 5618 5615 5611 5607 5603 5600 5597 5595 5592 5588 5584 5580 5576 5572 5569 5565 5561 5557 5554 5550 5546 5542 5538 5535 5533 5530 5528 5526 5524 5523 5521 5520 5518
5649 5645 5641 5638 5634 5630 5627 5624 5621 5618 5615 5611 5606 5602 5597 5593 5591 5588 5583 5578 5574 5570 5566 5561 5557 5552 5548 5545 5541 5537 5534 5530 5526 5523 5520 5517 5515 5513 5511 5508 5506 5504 5502
5644 5639 5636 5632 5629 5625 5620 5616 5614 5611 5609 5605 5602 5597 5592 5589 5585 5580 5575 5571 5566 5561 5555 5549 5544 5540 5535 5532 5528 5525 5521 5517 5514 5510 5506 5503 5501 5499 5497 5495 5491 5489 5487
5640 5635 5630 5627 5623 5618 5614 5610 5604 5602 5600 5597 5593 5589 5585 5580 5575 5571 5566 5561 5555 5550 5543 5537 5532 5528 5524 5520 5516 5512 5509 5505 5501 5497 5493 5490 5487 5485 5483 5480 5478 5475 5474
5634 5630 5626 5621 5617 5612 5608 5603 5599 5594 5589 5585 5582 5579 5575 5570 5566 5561 5556 5550 5542 5537 5531 5526 5521 5517 5512 5508 5504 5500 5497 5493 5489 5485 5481 5478 5474 5472 5469 5466 5464 5461 5459
5628 5623 5619 5614 5610 5605 5600 5595 5590 5585 5580 5575 5571 5567 5564 5559 5555 5549 5544 5537 5531 5525 5520 5515 5511 5506 5502 5497 5493 5489 5485 5481 5477 5473 5469 5466 5462 5459 5456 5453 5450 5448 5445
5621 5618 5613 5607 5601 5596 5591 5586 5580 5575 5570 5566 5561 5557 5552 5547 5542 5537 5532 5526 5521 5515 5510 5505 5500 5495 5491 5486 5482 5478 5473 5470 5466 5462 5458 5454 5451 5447 5444 5441 5438 5435 5432
5613 5609 5605 5599 5594 5589 5583 5578 5572 5567 5562 5557 5553 5549 5544 5537 5532 5527 5522 5516 5511 5506 5500 5495 5490 5485 5480 5475 5470 5467 5462 5459 5454 5450 5446 5443 5439 5435 5432 5429 5426 5423 5421
5605 5600 5595 5590 5585 5580 5574 5569 5564 5558 5553 5548 5543 5538 5534 5528 5522 5517 5512 5507 5501 5496 5490 5485 5479 5474 5469 5464 5460 5455 5451 5447 5444 5440 5436 5432 5428 5425 5421 5418 5415 5413 5410
5596 5591 5586 5580 5575 5571 5565 5559 5554 5548 5543 5538 5533 5528 5523 5518 5512 5507 5502 5497 5492 5486 5480 5474 5469 5464 5459 5455 5450 5445 5441 5437 5434 5429 5425 5422 5418 5415 5411 5408 5406 5403 5401
5587 5582 5576 5570 5565 5560 5554 5549 5544 5539 5534 5529 5523 5518 5513 5508 5503 5497 5492 5487 5481 5475 5470 5464 5459 5455 5450 5445 5441 5436 5432 5428 5424 5420 5416 5412 5409 5406 5402 5399 5397 5395 5393
5577 5572 5566 5561 5555 5550 5544 5539 5534 5529 5524 5519 5514 5509 5503 5498 5492 5487 5481 5476 5470 5465 5460 5455 5450 5445 5441 5436 5432 5427 5423 5419 5415 5411 5408 5404 5401 5397 5394 5392 5390 5388 5386
5567 5562 5556 5551 5545 5540 5534 5529 5524 5519 5514 5509 5504 5498 5493 5487 5482 5476 5471 5465 5460 5455 5450 5446 5441 5436 5431 5427 5423 5419 5415 5412 5408 5404 5400 5397 5394 5391 5388 5386 5384 5382 5380